Terminal Aerodrome Forecast
Issued by NWS Louisville, KY

Home | Current Version | Previous Version | Text Only | Print | Product List | Glossary On
Versions: 1 2 3 4 5 6 7 8 9 10 11 12 13 14 15
000
FTUS43 KLMK 282300
TAFSDF
TAF
KSDF 282320Z 2900/3006 02005KT P6SM SKC
     FM291200 17008KT P6SM SCT150
     FM291500 20012G19KT P6SM OVC100=

USA.gov is the U.S. government's official web portal to all federal, state and local government web resources and services.